ABS-7

Last updated on Nov. 15, 2019, 4:20 a.m. UTC

1 25894U 99046A   19318.56658104 -.00000348  00000-0  00000+0 0  9998
2 25894   0.4637  96.5801 0003496 153.3835 123.5127  1.00268707 73001
UTC
Height (km)
Latitude
Longitude
Inclination
Orbital Period
UTC large
Height (km)
Speed (km/s)
/
Latitude / Longitude
Inclination (degrees)
Orbital Period (minutes)
Azimuth
Elevation
Range (km)
Doppler Factor
iOS Compass Heading
iOS Angle

Next 30 passes for location: Hong Kong

Rise time Rise Azimuth (degrees) Set time Set Azimuth (degrees) Duration Max altitude (degrees)

No matching passes for this satellites